| time (UTC) | temp F | wind direction | speed MPH | gust MPH | rain 1hr in | rain 24hr in | rain mn in | humidity % | barometer mb |
| 20260507203038 | 74 | 322 | 3.0 | 9.0 | 0.00 | 0.00 | 0.00 | 35 | 1012.9 |
| 20260507201538 | 73 | 330 | 4.0 | 10.0 | 0.00 | 0.00 | 0.00 | 35 | 1012.9 |
| 20260507200038 | 73 | 320 | 4.0 | 11.0 | 0.00 | 0.00 | 0.00 | 35 | 1013.0 |
| 20260507194536 | 72 | 327 | 4.0 | 12.0 | 0.00 | 0.00 | 0.00 | 37 | 1013.1 |
| 20260507193040 | 71 | 329 | 4.0 | 14.0 | 0.00 | 0.00 | 0.00 | 38 | 1013.4 |
| 20260507191535 | 70 | 345 | 4.0 | 10.0 | 0.00 | 0.00 | 0.00 | 40 | 1013.6 |
| 20260507184645 | 70 | 24 | 4.0 | 11.0 | 0.00 | 0.00 | 0.00 | 43 | 1014.0 |
| 20260507183046 | 70 | 42 | 3.0 | 8.0 | 0.00 | 0.00 | 0.00 | 44 | 1014.1 |
| 20260507181537 | 69 | 16 | 2.0 | 7.0 | 0.00 | 0.00 | 0.00 | 46 | 1014.2 |
| 20260507180030 | 68 | 347 | 3.0 | 8.0 | 0.00 | 0.00 | 0.00 | 47 | 1014.3 |
| 20260507174606 | 67 | 350 | 2.0 | 8.0 | 0.00 | 0.00 | 0.00 | 49 | 1014.6 |
| 20260507173104 | 66 | 348 | 3.0 | 9.0 | 0.00 | 0.00 | 0.00 | 50 | 1014.8 |
| 20260507164551 | 64 | 24 | 2.0 | 9.0 | 0.00 | 0.00 | 0.00 | 56 | 1014.9 |
| 20260507163032 | 64 | 130 | 0.0 | 4.0 | 0.00 | 0.00 | 0.00 | 59 | 1014.9 |
| 20260507161534 | 62 | 115 | 1.0 | 6.0 | 0.00 | 0.00 | 0.00 | 61 | 1015.1 |
| 20260507160038 | 61 | 303 | 1.0 | 5.0 | 0.00 | 0.00 | 0.00 | 63 | 1015.3 |
| 20260507154534 | 60 | 115 | 1.0 | 11.0 | 0.00 | 0.00 | 0.00 | 68 | 1015.7 |
| 20260507151538 | 58 | 100 | 2.0 | 4.0 | 0.00 | 0.00 | 0.00 | 72 | 1015.8 |
| 20260507150052 | 57 | 113 | 1.0 | 4.0 | 0.00 | 0.00 | 0.00 | 76 | 1015.8 |
| 20260507143103 | 54 | 122 | 2.0 | 5.0 | 0.00 | 0.00 | 0.00 | 80 | 1015.7 |
| 20260507133135 | 52 | 239 | 0.0 | 6.0 | 0.00 | 0.00 | 0.00 | 80 | 1015.2 |
| 20260507131610 | 52 | 303 | 3.0 | 9.0 | 0.00 | 0.00 | 0.00 | 82 | 1015.1 |
| 20260507130036 | 51 | 318 | 3.0 | 9.0 | 0.00 | 0.00 | 0.00 | 84 | 1015.0 |
| 20260507124531 | 50 | 331 | 3.0 | 10.0 | 0.00 | 0.00 | 0.00 | 85 | 1015.1 |
| 20260507123036 | 50 | 305 | 3.0 | 7.0 | 0.00 | 0.00 | 0.00 | 85 | 1015.1 |
| 20260507121538 | 50 | 294 | 2.0 | 4.0 | 0.00 | 0.00 | 0.00 | 85 | 1015.0 |
| 20260507120139 | 50 | 273 | 1.0 | 3.0 | 0.00 | 0.00 | 0.00 | 85 | 1014.9 |
| 20260507114540 | 50 | 290 | 1.0 | 3.0 | 0.00 | 0.00 | 0.00 | 84 | 1014.8 |
| 20260507111535 | 50 | 292 | 1.0 | 4.0 | 0.00 | 0.00 | 0.00 | 82 | 1014.5 |
| 20260507110032 | 51 | 293 | 1.0 | 3.0 | 0.00 | 0.00 | 0.00 | 81 | 1014.4 |
| 20260507104551 | 52 | 294 | 1.0 | 5.0 | 0.00 | 0.00 | 0.00 | 80 | 1014.4 |
| 20260507103106 | 53 | 285 | 2.0 | 4.0 | 0.00 | 0.00 | 0.00 | 79 | 1014.4 |
| 20260507101532 | 53 | 269 | 1.0 | 4.0 | 0.00 | 0.00 | 0.00 | 77 | 1014.3 |
| 20260507100104 | 54 | 291 | 1.0 | 4.0 | 0.00 | 0.00 | 0.00 | 76 | 1014.2 |
| 20260507094645 | 54 | 303 | 1.0 | 5.0 | 0.00 | 0.00 | 0.00 | 73 | 1014.3 |
| 20260507091609 | 59 | 241 | 1.0 | 8.0 | 0.00 | 0.00 | 0.00 | 65 | 1014.2 |
| 20260507080035 | 57 | 24 | 0.0 | 4.0 | 0.00 | 0.00 | 0.00 | 75 | 1014.3 |
| 20260507074609 | 57 | 325 | 0.0 | 4.0 | 0.00 | 0.00 | 0.00 | 76 | 1014.3 |
| 20260507073031 | 57 | 4 | 1.0 | 5.0 | 0.00 | 0.00 | 0.00 | 76 | 1014.2 |
| 20260507070033 | 57 | 357 | 2.0 | 4.0 | 0.00 | 0.00 | 0.00 | 75 | 1014.3 |
| 20260507063035 | 58 | 252 | 0.0 | 3.0 | 0.00 | 0.00 | 0.00 | 73 | 1014.4 |
| 20260507061531 | 57 | 262 | 1.0 | 5.0 | 0.00 | 0.00 | 0.00 | 74 | 1014.5 |
| 20260507054532 | 58 | 328 | 0.0 | 3.0 | 0.00 | 0.00 | 0.00 | 69 | 1014.8 |
| 20260507053031 | 59 | 352 | 1.0 | 5.0 | 0.00 | 0.00 | 0.00 | 67 | 1014.9 |
| 20260507051535 | 59 | 354 | 1.0 | 6.0 | 0.00 | 0.00 | 0.00 | 63 | 1014.9 |
| 20260507050038 | 60 | 343 | 0.0 | 4.0 | 0.00 | 0.00 | 0.00 | 58 | 1014.9 |
| 20260507044529 | 63 | 3 | 0.0 | 3.0 | 0.00 | 0.00 | 0.00 | 55 | 1014.9 |
| 20260507043146 | 64 | 298 | 1.0 | 8.0 | 0.00 | 0.00 | 0.00 | 53 | 1014.7 |
| 20260507041633 | 64 | 247 | 2.0 | 7.0 | 0.00 | 0.00 | 0.00 | 51 | 1014.5 |
| 20260507040042 | 65 | 227 | 3.0 | 11.0 | 0.00 | 0.00 | 0.00 | 50 | 1014.3 |
| 20260507033033 | 66 | 238 | 3.0 | 9.0 | 0.00 | 0.00 | 0.00 | 49 | 1014.1 |
| 20260507014530 | 68 | 275 | 3.0 | 10.0 | 0.00 | 0.00 | 0.00 | 49 | 1013.4 |
| 20260507013037 | 68 | 273 | 4.0 | 12.0 | 0.00 | 0.00 | 0.00 | 48 | 1013.4 |
| 20260507011532 | 69 | 289 | 2.0 | 9.0 | 0.00 | 0.00 | 0.00 | 47 | 1013.4 |
| 20260507010033 | 69 | 283 | 4.0 | 10.0 | 0.00 | 0.00 | 0.00 | 47 | 1013.4 |
| 20260507004552 | 70 | 284 | 3.0 | 10.0 | 0.00 | 0.00 | 0.00 | 46 | 1013.3 |
| 20260507003032 | 70 | 286 | 3.0 | 10.0 | 0.00 | 0.00 | 0.00 | 45 | 1013.3 |
| 20260507001544 | 70 | 288 | 2.0 | 9.0 | 0.00 | 0.00 | 0.00 | 45 | 1013.1 |
| 20260507000029 | 71 | 287 | 3.0 | 13.0 | 0.00 | 0.00 | 0.00 | 45 | 1013.0 |
| 20260506234533 | 71 | 303 | 4.0 | 15.0 | 0.00 | 0.00 | 0.00 | 45 | 1012.8 |
| 20260506233032 | 73 | 305 | 3.0 | 10.0 | 0.00 | 0.00 | 0.00 | 44 | 1012.7 |
| 20260506231607 | 75 | 308 | 2.0 | 7.0 | 0.00 | 0.00 | 0.00 | 43 | 1012.8 |
| 20260506230030 | 75 | 309 | 3.0 | 7.0 | 0.00 | 0.00 | 0.00 | 42 | 1012.9 |
| 20260506224531 | 77 | 295 | 4.0 | 13.0 | 0.00 | 0.00 | 0.00 | 41 | 1012.9 |
| 20260506223042 | 78 | 291 | 4.0 | 11.0 | 0.00 | 0.00 | 0.00 | 40 | 1013.0 |
| 20260506220101 | 78 | 313 | 6.0 | 16.0 | 0.00 | 0.00 | 0.00 | 42 | 1013.1 |
| 20260506214538 | 78 | 319 | 5.0 | 14.0 | 0.00 | 0.00 | 0.00 | 42 | 1013.0 |
| 20260506213034 | 78 | 308 | 5.0 | 16.0 | 0.00 | 0.00 | 0.00 | 43 | 1013.1 |
| 20260506211650 | 77 | 300 | 5.0 | 14.0 | 0.00 | 0.00 | 0.00 | 43 | 1013.1 |
| 20260506204536 | 76 | 285 | 4.0 | 14.0 | 0.00 | 0.00 | 0.00 | 45 | 1013.3 |